STARLINK-32921, 62920

Orbit data source: Space-Track

STARLINK-32921, 62920 is a payload satellite owned by SpaceX/Seattle (US) in LEO that was launched on Sat, 08 Feb 2025 UTC via an FALCON 9 launch vehicle from the Air Force Eastern Test Range (AFETR). Payload-class satellites include a variety of spacecraft equipped with specific instruments for various scientific and technological missions. These include communications satellites like Starlink; space stations such as the ISS; scientific satellites like the Hubble; Earth observation satellites from companies like Planet Labs, Umbra, and HawkEye 360; GPS; miniature CubeSats for education and research; and military/defense satellites.

Loading next visibility...
Identifier
62920, 2025-027P
Orbit
LEO
Country
Flag of USUS
Related business
Manufacturer
SpaceX/Seattle
Mission
Operational Commercial Communications
Bus & Motor
STARLINK V2M, Unknown motor
Mass
730 kg wet, ~700 kg dry
Launch date (UTC)
2025-02-08 (7 months ago)
Launch vehicle
FALCON 9
Launch site
Air Force Eastern Test Range (AFETR)
Object type
Payload
Rocket body
Debris
Shape & HBR
Box + 2 Pan, 14.5 m
Radar Cross Section
33.884 m², Large (>1 m²)

Expand to show TLE details & history
Last TLE update: 1 day ago

TLE from 1 day ago
0 STARLINK-32921
1 62920U 25027P   25260.41430270  .00023940  00000-0  87718-3 0  9993
2 62920  43.0056  27.3069 0001834 262.6555  97.4089 15.27560235 35048
Epoch: 2025-09-17T09:56Z
TLE epoch observation values (Epoch: 2025-09-17T09:56:35.753Z)
Latitude
0.00004°
Longitude
-118.43262°
Altitude
483.047 km
Speed
7.626 km/s
True Right ascension
01h 49m 13s
True Declination
0° 00' 00"
Sunlit
Object was in full shadow at epoch
Visualization orbit readout
Latitude
Unknown
Longitude
Unknown
Altitude
Unknown
Speed
Unknown
Apparent Right ascension
Unknown
Apparent Declination
Unknown
Sunlit
N/A
Visualization observer readout
Local Sidereal Time
06:02:55
Azimuth
Unknown
Elevation
Unknown
Doppler factor
Unknown
Orbital elements
Apogee altitude
486.311 km
Perigee altitude
483.794 km
Semi-major axis
6,863.189 km
Eccentricity
0.00018
Inclination
43.0056°
RAAN
27.3069°
Arg. of periapsis
262.6555°
True anomaly
97.42974°
Mean anomaly
97.4089°
Eccentric anomaly
97.41932°
Mean motion
3.81728 °/min
Orbital period
94.31 mins
BSTAR
0.00087718
Loading maneuver chart data...
Computing Atmospheric mass density...
Loading historical data...
Loading historical data...
Loading historical data...
Loading historical data...
Loading historical data...
Loading historical data...
Loading historical data...

Documentation

Showing up to 5 results
|